Tracking 35331 objects as of 15-Sep-2026
HD Live streaming from Space Station
objects crossing your sky now

STARLINK-11097

Track STARLINK-11097 now!
10-day predictions
STARLINK-11097 is classified as:


NORAD ID: 59759
Int'l Code: 2024-091G
Launch date: May 14, 2024
Source: United States (US)
Launch site: AIR FORCE WESTERN TEST RANGE (AFWTR)
Your satellite tracking list
Your tracking list is empty




NASA's NSSDC Master Catalog

Two Line Element Set (TLE):
1 59759U 24091G   26256.57906906 -.00000932  00000-0 -28344-5 0  9996
2 59759  53.1595   0.0258 0001219 316.3907  43.7014 15.69689132135022
Source of the keplerian elements: AFSPC